Buffalo, MN

10:00 PM CST on January 23, 2017 (GMT -0600)
Buffalo

Weather History for KCFE - March, 2014

Change the Weather History Date:

Thursday, March 6, 2014

  Actual Average (KMIC) Record (KMIC)
Temperature  
Mean Temperature 20 °F -  
Max Temperature 27 °F 28 °F 59 °F (2005)
Min Temperature 13 °F 13 °F 1 °F (2008)
Degree Days  
Heating Degree Days 45    
Moisture  
Dew Point 16 °F    
Average Humidity 80    
Maximum Humidity 88    
Minimum Humidity 74    
Precipitation  
Precipitation 0.00 in - - ()
Sea Level Pressure  
Sea Level Pressure 30.04 in    
Wind  
Wind Speed 9 mph (SSE)    
Max Wind Speed 16 mph    
Max Gust Speed 31 mph    
Visibility 8 miles    
Events      
Averages and records for this station are not official NWS values.
T = Trace of Precipitation, MM = Missing Value Source: NWS Daily Summary

Daily Weather History Graph

Daily Weather History Graph

Search for Another Location

Airport or City:

Trip Planner

Search our weather history database for the weather conditions in past years. The results will help you decide how hot, cold, wet, or windy it might be!

Date:

Astronomy

Mar. 06, 2014 Rise Set
Actual Time 6:44 AM CST 6:09 PM CST
Civil Twilight 6:15 AM CST 6:38 PM CST
Nautical Twilight 5:40 AM CST 7:13 PM CST
Astronomical Twilight 5:06 AM CST 7:47 PM CST
Moon 9:37 AM CST (3/6) No Moon Set
Length of Visible Light 12h 23m
Length of Day
11h 25m
Waxing Crescent, 32% of the Moon is Illuminated
Mar 6
Waxing Crescent
Mar 8
First Quarter
Mar 16
Full
Mar 23
Last Quarter
Mar 30
New

Hourly Weather History & Observations

Time (CST) Temp. Windchill Dew Point Humidity Pressure Visibility Wind Dir Wind Speed Gust Speed Precip Events Conditions
12:15 AM 13.5 °F 3.3 °F 7.7 °F 78% 30.31 in 10.0 mi SSE 6.9 mph - N/A   Clear
12:35 AM 13.6 °F 3.5 °F 8.1 °F 78% 30.30 in 10.0 mi SSE 6.9 mph - N/A   Clear
12:55 AM 13.5 °F 3.3 °F 7.7 °F 78% 30.29 in 10.0 mi SSE 6.9 mph - N/A   Clear
1:15 AM 13.1 °F 0.9 °F 7.7 °F 79% 30.29 in 10.0 mi SSE 9.2 mph - N/A   Clear
1:36 AM 13.1 °F 5.4 °F 7.7 °F 79% 30.29 in 10.0 mi SSE 4.6 mph - N/A   Clear
1:55 AM 13.1 °F 2.8 °F 7.7 °F 79% 30.29 in 10.0 mi SSE 6.9 mph - N/A   Mostly Cloudy
2:15 AM 13.5 °F 3.3 °F 8.2 °F 80% 30.28 in 10.0 mi SSE 6.9 mph - N/A   Overcast
2:36 AM 14.0 °F 3.9 °F 8.6 °F 79% 30.26 in 10.0 mi SE 6.9 mph - N/A   Overcast
2:55 AM 14.2 °F 2.2 °F 8.8 °F 79% 30.26 in 10.0 mi SSE 9.2 mph - N/A   Overcast
3:16 AM 14.4 °F 3.3 °F 9.0 °F 79% 30.25 in 10.0 mi SSE 8.1 mph - N/A   Overcast
3:36 AM 14.5 °F 2.7 °F 9.1 °F 79% 30.24 in 10.0 mi SSE 9.2 mph - N/A   Overcast
3:55 AM 14.7 °F 3.8 °F 9.0 °F 78% 30.24 in 10.0 mi SSE 8.1 mph - N/A   Mostly Cloudy
4:16 AM 14.5 °F 3.6 °F 8.6 °F 77% 30.23 in 10.0 mi SSE 8.1 mph - N/A   Scattered Clouds
4:36 AM 14.4 °F 4.3 °F 8.6 °F 78% 30.23 in 10.0 mi SSE 6.9 mph - N/A   Clear
4:55 AM 14.4 °F 3.3 °F 8.6 °F 78% 30.22 in 10.0 mi SSE 8.1 mph - N/A   Clear
5:15 AM 14.7 °F 2.9 °F 8.8 °F 77% 30.20 in 10.0 mi SE 9.2 mph - N/A   Mostly Cloudy
5:36 AM 14.9 °F 4.0 °F 9.1 °F 78% 30.19 in 10.0 mi SSE 8.1 mph - N/A   Overcast
5:55 AM 15.4 °F 2.3 °F 9.5 °F 77% 30.17 in 10.0 mi SE 11.5 mph 17.3 mph N/A   Mostly Cloudy
6:15 AM 15.8 °F 3.4 °F 9.9 °F 77% 30.16 in 10.0 mi SSE 10.4 mph 16.1 mph N/A   Overcast
6:36 AM 15.8 °F 5.1 °F 10.0 °F 78% 30.16 in 10.0 mi SSE 8.1 mph - N/A   Mostly Cloudy
6:55 AM 16.2 °F 1.9 °F 10.4 °F 78% 30.13 in 10.0 mi SSE 13.8 mph 19.6 mph N/A   Mostly Cloudy
7:15 AM 16.7 °F 3.2 °F 10.9 °F 78% 30.13 in 10.0 mi SSE 12.7 mph 21.9 mph N/A   Scattered Clouds
7:36 AM 16.7 °F 5.3 °F 11.1 °F 79% 30.13 in 10.0 mi SSE 9.2 mph 18.4 mph N/A   Clear
7:55 AM 16.7 °F 6.2 °F 11.3 °F 79% 30.13 in 10.0 mi SSE 8.1 mph 17.3 mph N/A   Mostly Cloudy
8:15 AM 17.6 °F 6.4 °F 11.7 °F 78% 30.15 in 10.0 mi SSE 9.2 mph - N/A   Overcast
8:35 AM 18.5 °F 8.4 °F 12.6 °F 78% 30.14 in 10.0 mi SSE 8.1 mph - N/A   Overcast
8:55 AM 19.0 °F 9.0 °F 12.9 °F 77% 30.15 in 10.0 mi SSE 8.1 mph - N/A   Overcast
9:15 AM 19.8 °F 10.8 °F 13.6 °F 77% 30.13 in 10.0 mi SSE 6.9 mph - N/A   Overcast
9:35 AM 20.3 °F 10.6 °F 14.0 °F 77% 30.12 in 10.0 mi SSE 8.1 mph - N/A   Overcast
9:56 AM 21.0 °F 8.6 °F 14.7 °F 77% 30.10 in 10.0 mi SSE 12.7 mph 18.4 mph N/A   Overcast
10:15 AM 21.2 °F 10.1 °F 14.9 °F 77% 30.08 in 10.0 mi SSE 10.4 mph 18.4 mph N/A   Overcast
10:35 AM 22.5 °F 10.5 °F 15.8 °F 76% 30.06 in 10.0 mi SSE 12.7 mph 19.6 mph N/A   Overcast
10:56 AM 23.4 °F 10.6 °F 17.1 °F 77% 30.05 in 10.0 mi SSE 15.0 mph 26.5 mph N/A   Overcast
11:15 AM 23.7 °F 12.1 °F 17.2 °F 76% 30.05 in 10.0 mi SSE 12.7 mph 23.0 mph N/A   Overcast
11:35 AM 24.6 °F 13.2 °F 17.8 °F 75% 30.03 in 10.0 mi SSE 12.7 mph 20.7 mph N/A   Overcast
11:56 AM 25.3 °F 13.6 °F 18.1 °F 74% 30.03 in 10.0 mi SSE 13.8 mph 20.7 mph N/A   Mostly Cloudy
12:15 PM 25.7 °F 15.1 °F 18.9 °F 75% 30.02 in 10.0 mi SSE 11.5 mph 23.0 mph N/A   Overcast
12:35 PM 25.7 °F 13.1 °F 19.2 °F 76% 30.01 in 10.0 mi SSE 16.1 mph 21.9 mph N/A   Overcast
12:56 PM 26.4 °F 14.5 °F 19.4 °F 75% 29.99 in 7.0 mi SSE 15.0 mph 24.2 mph N/A   Overcast
1:15 PM 26.4 °F 16.0 °F 19.8 °F 76% 29.99 in 7.0 mi South 11.5 mph 21.9 mph N/A   Overcast
1:35 PM 26.1 °F 14.0 °F 20.1 °F 78% 29.98 in 5.0 mi SSE 15.0 mph 21.9 mph N/A   Haze
1:56 PM 26.4 °F 14.5 °F 20.5 °F 78% 29.96 in 5.0 mi SSE 15.0 mph 23.0 mph N/A   Haze
2:15 PM 26.6 °F 16.2 °F 21.0 °F 79% 29.96 in 5.0 mi SSE 11.5 mph 21.9 mph N/A   Haze
2:35 PM 27.1 °F 15.4 °F 21.2 °F 78% 29.94 in 5.0 mi SSE 15.0 mph 31.1 mph N/A   Haze
2:56 PM 27.1 °F 14.9 °F 21.4 °F 79% 29.93 in 5.0 mi SSE 16.1 mph 23.0 mph N/A   Haze
3:15 PM 27.3 °F 17.1 °F 21.6 °F 79% 29.91 in 7.0 mi SSE 11.5 mph 19.6 mph N/A   Overcast
3:35 PM 27.1 °F 16.4 °F 21.4 °F 79% 29.90 in 7.0 mi SE 12.7 mph 20.7 mph N/A   Overcast
3:56 PM 26.4 °F 16.0 °F 21.2 °F 81% 29.90 in 7.0 mi SSE 11.5 mph 20.7 mph N/A   Overcast
4:15 PM 26.4 °F 16.0 °F 21.2 °F 81% 29.90 in 7.0 mi SSE 11.5 mph 19.6 mph N/A   Overcast
4:35 PM 26.1 °F 17.6 °F 21.2 °F 82% 29.91 in 5.0 mi SSE 8.1 mph 18.4 mph N/A   Haze
4:56 PM 25.7 °F 16.4 °F 21.2 °F 83% 29.91 in 5.0 mi SSE 9.2 mph 17.3 mph N/A   Haze
5:15 PM 25.5 °F 13.8 °F 21.2 °F 84% 29.91 in 5.0 mi South 13.8 mph 17.3 mph N/A   Overcast
5:35 PM 25.3 °F 14.1 °F 21.2 °F 84% 29.90 in 4.0 mi South 12.7 mph 20.7 mph N/A   Overcast
5:56 PM 24.8 °F 15.3 °F 21.2 °F 86% 29.89 in 4.0 mi SSE 9.2 mph 20.7 mph N/A   Overcast
6:15 PM 24.8 °F 14.6 °F 21.2 °F 86% 29.88 in 5.0 mi SSE 10.4 mph 18.4 mph N/A   Overcast
6:35 PM 24.8 °F 16.1 °F 21.2 °F 86% 29.89 in 5.0 mi SSE 8.1 mph - N/A   Overcast
6:55 PM 24.8 °F 14.6 °F 21.6 °F 87% 29.88 in 5.0 mi SSE 10.4 mph - N/A   Overcast
7:15 PM 24.8 °F 15.3 °F 21.6 °F 87% 29.87 in 5.0 mi SSE 9.2 mph - N/A   Overcast
7:36 PM 24.8 °F 16.9 °F 21.7 °F 88% 29.86 in 5.0 mi SSE 6.9 mph 16.1 mph N/A   Overcast
7:55 PM 25.2 °F 16.5 °F 21.7 °F 87% 29.86 in 5.0 mi SSE 8.1 mph - N/A   Overcast
8:15 PM 25.2 °F 15.7 °F 21.6 °F 86% 29.85 in 5.0 mi SSE 9.2 mph - N/A   Overcast
8:36 PM 25.3 °F 16.0 °F 21.2 °F 84% 29.85 in 5.0 mi SSE 9.2 mph - N/A   Overcast
8:55 PM 25.3 °F 18.5 °F 21.2 °F 84% 29.85 in 7.0 mi SSE 5.8 mph - N/A   Overcast
9:15 PM 24.6 °F 15.1 °F 20.3 °F 84% 29.84 in 7.0 mi SE 9.2 mph - N/A   Overcast
9:36 PM 23.9 °F 15.0 °F 19.8 °F 84% 29.84 in 7.0 mi SSE 8.1 mph 16.1 mph N/A   Mostly Cloudy
9:55 PM 23.7 °F 16.6 °F 19.4 °F 84% 29.84 in 7.0 mi SSE 5.8 mph - N/A   Mostly Cloudy
10:15 PM 23.4 °F 15.2 °F 19.4 °F 85% 29.83 in 7.0 mi SE 6.9 mph - N/A   Scattered Clouds
10:36 PM 23.5 °F 17.6 °F 19.4 °F 84% 29.82 in 7.0 mi SE 4.6 mph - N/A   Scattered Clouds
10:55 PM 23.7 °F 16.6 °F 19.9 °F 85% 29.81 in 7.0 mi SSE 5.8 mph - N/A   Scattered Clouds
11:15 PM 23.9 °F 18.0 °F 20.1 °F 85% 29.80 in 7.0 mi SSE 4.6 mph - N/A   Scattered Clouds
11:36 PM 24.3 °F 17.3 °F 20.3 °F 85% 29.79 in 7.0 mi SE 5.8 mph - N/A   Mostly Cloudy
11:55 PM 24.6 °F 17.7 °F 20.8 °F 86% 29.79 in 7.0 mi SSE 5.8 mph - N/A   Mostly Cloudy